SCP
0 0 0 0 0 0 0 0 0 0 0 0 0 1 1 1 1 0 0 0 0 0 0 0 0 0 0 0 0 0 0 0 0 0 0 0 0 1 1 1 1 1 1 1
0 0 0 0 0 0 0 0 0 0 0 0 0 0 0 0 0 0 0 0 0 0 0 0 0 0 0 0 0 0 0 0 0 0 0 0 0 1 1 1 1 1 1 1
0 0 0 0 0 0 0 0 0 0 0 0 0 0 0 0 0 0 0 0 0 0 0 0 0 0 0 0 0 0 0 0 0 0 0 0 0 0 1 1 1 1 1 1
0 0 0 0 0 0 0 0 0 0 0 0 0 0 0 0 0 0 0 0 0 0 0 0 0 0 0 0 0 0 0 0 0 0 0 0 0 1 1 1 1 1 1 1
0 0 0 0 0 0 0 0 0 0 0 0 0 0 0 0 0 0 0 0 0 0 0 0 0 0 0 0 0 0 0 0 0 0 0 0 0 1 0 0 1 1 1 1
0 0 0 0 0 0 0 0 0 0 0 0 0 0 0 0 0 0 0 0 0 0 0 0 0 0 0 0 0 0 0 0 0 0 0 0 0 0 0 0 0 1 1 1
0 0 0 0 0 0 0 0 0 0 0 0 0 0 0 0 0 0 0 0 0 0 0 0 0 0 0 0 0 0 0 0 0 0 0 0 0 0 0 0 0 0 1 1
0 0 0 0 0 0 0 0 0 0 0 0 0 0 0 0 0 0 0 0 0 0 0 0 0 0 0 0 0 0 0 0 0 0 0 0 0 0 0 0 0 0 0 1
0 0 0 0 0 0 0 0 0 0 0 0 0 0 0 0 0 0 0 0 0 0 0 0 0 0 0 0 0 0 0 0 0 0 0 0 0 0 0 0 0 0 0 0
0 0 0 0 0 0 0 0 0 0 0 0 0 0 0 0 0 0 0 0 0 0 0 0 0 0 0 0 0 0 0 0 0 0 0 0 0 0 0 0 0 0 0 0
0 0 0 0 0 0 0 0 0 0 0 0 0 0 0 0 0 0 0 0 0 0 0 0 0 0 0 0 0 0 0 0 0 0 0 0 0 0 0 0 0 0 0 0
0 0 0 0 0 0 0 0 0 0 0 0 0 0 0 0 0 0 0 0 0 0 0 0 0 0 0 0 0 0 0 0 0 0 0 0 0 0 0 0 0 0 0 0
0 0 0 0 0 0 0 0 0 0 0 0 0 0 0 0 0 0 0 0 0 0 0 0 0 0 0 0 0 0 0 0 0 0 0 0 0 0 0 0 0 0 0 0
0 0 0 0 0 0 0 0 0 0 0 0 0 0 0 0 0 0 0 0 0 0 0 0 0 0 0 0 0 0 0 0 0 0 0 0 0 0 0 0 0 0 0 0
0 0 0 0 0 0 0 0 0 0 0 0 0 0 0 0 0 0 0 0 0 0 0 0 0 0 0 0 0 0 0 0 0 0 0 0 0 0 0 0 0 0 0 0
0 0 0 0 0 0 0 0 0 0 0 0 0 0 0 0 0 0 0 0 0 0 0 0 0 0 0 0 0 0 0 0 0 0 0 0 0 0 0 0 0 0 0 0
0 0 0 0 0 0 0 0 0 0 0 0 0 0 0 0 0 0 0 0 0 0 0 0 0 0 0 0 0 0 0 0 0 0 0 0 0 0 0 0 0 0 0 0
0 0 0 0 0 0 0 0 0 0 0 0 0 0 0 0 0 0 0 0 0 0 0 0 0 0 0 0 0 0 0 0 0 0 0 0 0 0 0 0 0 0 0 0
0 0 0 0 0 0 0 0 0 0 0 0 0 0 0 0 0 0 0 0 0 0 0 0 0 0 0 0 0 0 0 0 0 0 0 0 0 0 0 0 0 0 0 0
0 0 0 0 0 0 0 0 0 0 0 0 0 0 0 0 0 0 0 0 0 0 0 0 0 0 0 0 0 0 0 0 0 0 0 0 0 0 0 0 0 0 0 0
0 0 0 0 0 0 0 0 0 0 0 0 0 0 0 0 0 0 0 0 0 0 0 0 0 0 0 0 0 0 0 0 0 0 0 0 0 0 0 0 0 0 0 0
0 0 0 0 0 0 0 0 0 0 0 0 0 0 0 0 0 0 0 0 0 0 0 0 0 0 0 0 0 0 0 0 0 0 0 0 0 0 0 0 0 0 0 0
0 0 0 0 0 0 0 0 0 0 0 0 0 0 0 0 0 0 0 0 0 0 0 0 0 0 0 0 0 0 0 0 0 0 0 0 0 0 0 0 0 0 0 0
0 0 0 0 0 0 0 0 0 0 0 0 0 0 0 0 0 0 0 0 0 0 0 0 0 0 0 0 0 0 0 0 0 0 0 0 0 0 0 0 0 0 0 0
0 0 0 0 0 0 0 0 0 0 0 0 0 0 0 0 0 0 0 0 0 0 0 0 0 0 0 0 0 0 0 0 0 0 0 0 0 0 0 0 0 0 0 0
0 0 0 0 0 0 0 0 0 0 0 0 0 0 0 0 0 0 0 0 0 0 0 0 0 0 0 0 0 0 0 0 0 0 0 0 0 0 0 0 0 0 0 0
Wind_Speed
4 7 3 1 2 3 2 3 4 2 4 5 6 6 4 2 4 4 3 3 3 3 3 4 5 5 5 6 6 6 6 6 5 4 3 4 4 4 4 4 4 4 4 4
7 3 1 2 4 7 7 7 4 1 2 5 5 3 2 2 3 3 3 2 2 3 4 5 5 5 5 6 6 6 6 7 6 4 4 3 4 4 4 3 4 4 4 4
7 2 2 7 7 7 6 4 3 2 1 4 7 2 1 1 2 3 2 1 1 2 3 4 5 5 5 6 6 6 6 7 6 6 4 4 3 3 3 3 3 4 4 5
5 2 6 7 4 4 1 1 2 2 2 2 5 3 4 3 1 1 1 0 1 2 3 3 4 5 5 6 6 6 6 6 6 6 5 5 4 3 4 4 4 5 5 4
3 2 5 4 1 1 3 2 1 1 1 1 0 4 4 2 2 2 1 1 1 2 3 3 4 4 5 5 6 6 6 6 6 6 6 5 4 4 4 4 5 5 4 4
3 2 3 1 2 1 1 5 6 5 4 1 3 5 5 4 4 3 2 2 2 2 3 3 4 4 5 5 5 6 6 7 7 7 7 6 6 6 6 5 5 4 4 4
3 3 2 2 4 5 6 6 5 5 4 4 1 3 5 4 4 4 4 3 3 3 3 4 5 5 6 6 6 6 6 7 7 7 7 7 6 6 6 5 5 4 4 3
4 2 2 2 1 0 1 6 6 3 3 4 2 1 4 3 4 3 3 3 2 2 3 3 4 4 5 5 5 5 6 6 7 7 7 7 6 4 4 5 4 4 3 3
6 4 2 1 1 2 1 1 5 5 0 1 2 2 3 1 2 2 3 2 2 3 3 3 4 4 4 4 5 5 5 5 6 7 7 7 7 6 5 5 4 3 4 3
7 4 3 2 2 3 1 2 5 3 1 3 4 3 5 6 5 4 3 3 3 3 3 3 3 4 4 3 4 4 4 4 5 6 6 5 6 6 6 5 6 6 6 5
5 6 1 1 0 1 2 3 4 3 4 3 3 7 6 8 7 6 5 5 4 4 4 4 4 4 3 3 3 3 4 4 5 5 5 6 6 7 6 6 6 6 5 6
3 7 2 2 3 1 2 3 4 3 1 2 3 8 3 7 7 6 6 5 4 4 4 4 4 3 3 3 3 3 3 3 3 4 5 6 6 6 6 7 7 6 6 6
4 7 4 3 5 3 0 2 4 5 3 1 2 8 2 4 5 5 6 6 4 4 4 3 3 3 3 3 3 2 2 2 3 3 4 5 6 6 6 6 6 6 6 6
5 4 6 6 7 5 4 4 4 5 3 3 6 6 4 6 7 6 6 6 4 4 4 3 3 4 3 3 2 2 2 1 2 3 4 5 5 5 5 5 6 6 6 6
5 3 3 5 6 5 5 6 7 6 7 7 7 6 8 10 10 9 7 5 4 4 4 4 3 3 3 3 2 1 1 1 1 2 3 4 4 5 5 5 5 6 6 6
3 2 1 3 5 4 4 6 7 7 6 7 6 7 6 6 6 6 6 6 5 5 4 4 3 3 3 3 3 1 1 0 1 2 2 3 4 5 5 5 5 5 5 5
2 2 2 3 3 1 5 7 7 6 6 7 8 8 4 5 8 9 8 7 6 6 5 4 3 3 4 4 3 3 2 1 1 1 2 3 3 4 5 5 5 5 5 5
4 3 3 1 3 2 7 4 4 5 6 7 6 6 9 10 10 8 8 8 7 6 5 4 3 3 3 3 3 3 3 2 2 1 1 2 3 3 4 5 5 5 4 4
4 5 3 3 1 6 6 3 1 1 5 5 7 7 8 5 3 4 7 7 8 7 6 5 4 3 2 3 4 5 3 2 2 1 1 1 1 2 4 5 5 4 3 4
5 6 5 3 1 3 6 2 1 2 5 5 5 8 7 7 3 7 6 7 7 6 5 4 3 3 3 3 5 6 4 2 2 2 2 1 1 1 3 4 4 3 3 3
2 3 3 2 2 7 7 1 3 1 7 5 4 7 9 10 10 6 5 7 7 7 6 5 4 3 4 4 6 6 4 4 4 3 2 1 1 1 2 3 3 3 3 4
7 5 4 4 1 7 5 4 5 9 5 3 3 6 9 9 6 5 7 7 8 7 6 5 4 4 4 4 6 6 6 5 4 3 2 1 1 1 1 2 3 3 4 4
6 8 7 9 8 8 5 8 6 4 4 3 3 5 7 7 7 8 8 8 8 8 7 5 5 5 4 4 6 7 6 5 4 3 3 2 2 1 0 1 2 2 3 3
3 2 3 2 5 4 4 5 5 4 5 4 4 5 7 8 9 9 8 8 7 7 7 6 5 5 5 5 6 7 7 6 5 4 4 3 3 2 1 0 1 1 1 2
5 4 2 3 6 7 7 6 6 5 5 5 4 4 7 8 8 9 8 9 8 7 7 6 6 7 7 6 7 7 7 6 5 4 4 4 4 3 2 1 1 1 1 2
5 4 2 3 5 4 5 9 10 7 6 6 4 3 3 7 9 9 9 9 8 8 7 7 7 7 7 7 7 7 7 7 6 4 4 4 3 3 3 2 1 2 3 3
Wind_Direction
44 65 73 97 137 135 107 105 115 134 139 117 140 153 175 149 106 96 77 55 37 5 338 349 350 352 351 347 344 337 333 328 331 326 317 307 300 295 292 281 273 266 253 244
50 57 305 48 66 77 79 88 86 108 151 119 133 144 178 160 140 138 122 94 33 350 346 346 349 351 346 337 333 334 335 328 328 316 297 272 272 275 272 280 288 276 264 250
128 210 48 76 60 73 72 111 158 201 89 93 114 94 196 197 122 118 124 132 6 356 339 332 337 338 335 333 331 332 327 326 324 323 316 312 306 302 308 307 297 287 277 259
99 42 73 77 62 85 134 192 165 153 112 228 157 178 229 202 176 169 181 359 337 325 318 320 326 331 328 322 323 323 322 324 325 328 329 323 317 301 284 285 285 291 288 270
87 72 72 71 49 123 223 256 284 170 152 313 135 140 253 191 213 239 230 237 292 303 306 313 315 314 312 318 324 320 324 327 327 329 329 323 315 296 291 293 296 298 295 286
78 67 94 140 307 302 16 25 24 45 68 329 247 156 239 225 207 209 226 249 282 295 306 311 313 312 313 320 328 329 333 327 326 329 328 324 317 314 314 313 312 308 300 293
55 17 14 34 20 9 56 65 32 10 10 264 250 131 236 223 194 186 199 234 269 279 293 305 316 319 320 323 325 328 331 324 326 331 331 325 318 315 310 307 305 307 306 301
130 278 312 22 127 233 32 128 140 183 239 285 350 225 252 211 193 184 195 221 259 286 289 297 301 307 315 317 319 324 329 326 330 335 333 331 330 326 320 316 313 309 300 294
150 216 279 280 357 113 62 116 169 143 266 314 299 296 306 210 214 214 223 237 264 274 289 291 297 304 312 315 314 316 323 329 332 334 334 339 344 346 342 338 337 333 327 325
133 157 250 236 13 351 130 133 73 85 81 316 298 252 234 212 221 220 223 239 262 269 287 291 293 292 297 305 311 322 327 328 328 336 343 351 348 352 351 357 360 356 355 357
114 124 131 44 333 258 30 52 83 111 150 157 284 274 223 195 198 200 216 229 246 252 260 268 276 285 295 311 318 324 331 339 341 343 347 354 355 359 5 8 3 1 6 8
92 109 95 309 306 242 147 146 131 132 266 174 206 270 239 185 190 194 211 233 246 245 240 248 265 287 302 303 306 316 325 338 339 347 357 359 358 3 9 8 4 4 10 10
94 104 91 345 331 335 260 195 149 134 124 157 217 271 258 204 205 210 214 231 244 245 241 252 271 282 282 282 288 308 319 331 346 3 8 6 5 7 7 4 3 6 10 11
107 107 153 186 214 202 201 211 177 128 149 243 235 250 231 219 214 221 225 229 232 238 234 239 259 270 271 267 269 291 305 314 358 13 15 10 1 1 360 359 0 2 4 10
106 110 204 222 214 184 197 200 194 186 193 203 237 237 237 211 206 211 217 221 218 224 224 224 238 253 261 256 260 268 272 310 7 18 14 2 355 358 360 0 358 358 1 7
97 130 338 289 239 209 238 235 214 218 215 222 239 261 244 196 188 204 210 208 212 215 216 217 231 240 243 237 232 215 201 249 51 30 7 359 3 1 358 352 352 356 356 356
91 116 74 308 322 84 278 246 212 216 212 195 217 236 182 176 198 205 205 205 206 205 206 208 224 241 241 227 209 186 183 149 85 38 4 4 5 2 350 346 353 353 352 357
122 102 108 13 35 249 259 263 198 211 239 216 217 211 184 196 204 205 196 192 199 197 198 209 221 240 239 213 182 159 139 122 108 70 4 356 3 357 346 348 348 344 345 351
124 123 96 85 347 293 295 285 178 220 285 236 214 212 202 189 155 255 221 194 190 193 197 206 208 205 199 187 164 144 136 129 118 117 310 315 345 354 350 347 340 338 348 354
68 88 103 100 69 269 266 283 107 81 292 278 200 197 184 142 169 251 226 193 185 185 187 191 186 181 186 182 152 145 155 160 187 216 231 252 291 345 347 340 336 339 348 349
56 57 111 160 235 268 259 219 74 78 256 270 204 191 176 184 204 221 188 180 181 184 191 182 173 185 203 174 152 155 174 200 217 211 206 229 264 285 331 346 346 354 7 12
168 160 184 151 196 269 236 152 187 222 238 256 221 197 192 209 213 193 179 180 182 188 193 184 182 206 211 176 158 168 198 216 216 202 202 223 257 291 24 18 8 12 23 29
185 184 180 181 212 240 221 211 228 200 222 245 224 217 192 190 189 187 188 187 190 194 199 195 191 207 216 192 173 183 210 210 206 202 211 220 225 264 23 47 24 17 23 28
307 164 143 229 272 280 272 263 278 248 246 255 235 210 183 189 192 192 193 195 198 200 201 200 194 206 219 210 199 200 201 197 194 203 212 211 207 219 251 1 35 43 22 17
336 4 11 295 311 337 2 352 317 298 294 290 268 217 197 191 195 196 199 202 203 203 202 196 197 207 218 211 210 210 200 189 193 207 213 208 207 203 207 216 243 240 248 240
350 356 331 271 304 299 325 347 354 350 330 315 296 275 232 200 203 201 205 207 204 205 201 200 205 210 216 208 211 212 203 191 187 199 208 208 207 206 202 205 261 289 261 279